EW2958 Weather Reports


Display with metric or nautical units.
time (UTC)temp
F
wind
direction
speed
MPH
gust
MPH
rain 1hr
in
rain 24hr
in
rain mn
in
humidity
%
barometer
mb
20260506090054 52 257 8.0 17.0 0.00 0.00 0.00 79 1015.7
20260506084618 53 238 6.0 21.0 0.00 0.00 0.00 79 1015.6
20260506083050 54 265 12.0 25.0 0.00 0.00 0.00 78 1015.2
20260506081555 55 272 8.0 19.0 0.00 0.00 0.00 76 1014.8
20260506073047 58 295 8.0 19.0 0.00 0.00 0.00 77 1013.5
20260506071546 59 268 5.0 14.0 0.00 0.00 0.00 78 1013.4
20260506061540 59 301 7.0 21.0 0.00 0.00 0.00 78 1014.0
20260506044536 64 295 4.0 15.0 0.00 0.00 0.00 57 1014.0
20260506043028 64 262 9.0 16.0 0.00 0.00 0.00 56 1014.4
20260506041528 65 303 5.0 18.0 0.00 0.00 0.00 56 1014.5
20260506040025 64 274 7.0 19.0 0.00 0.00 0.00 57 1014.9
20260506034521 65 283 7.0 17.0 0.00 0.00 0.00 55 1015.0
20260506033016 65 258 6.0 17.0 0.00 0.00 0.00 57 1015.3
20260506031513 63 258 6.0 16.0 0.00 0.00 0.00 58 1015.4
20260506030010 63 250 8.0 20.0 0.00 0.00 0.00 58 1015.9
20260506024507 64 283 7.0 17.0 0.00 0.00 0.00 57 1016.3
20260506023005 64 299 5.0 14.0 0.00 0.00 0.00 58 1016.5
20260506021502 63 283 4.0 14.0 0.00 0.00 0.00 59 1016.9
20260506020100 64 277 6.0 16.0 0.00 0.00 0.00 57 1017.3
20260506014558 62 314 7.0 15.0 0.00 0.00 0.00 58 1017.5
20260506013107 63 285 8.0 18.0 0.00 0.00 0.00 57 1017.8
20260506011614 62 266 5.0 19.0 0.00 0.00 0.00 59 1018.0
20260506010056 62 312 3.0 16.0 0.00 0.00 0.00 60 1018.2
20260506004545 61 296 5.0 15.0 0.00 0.00 0.00 60 1018.3
20260506003043 60 292 7.0 16.0 0.00 0.00 0.00 61 1018.6
20260506001541 60 304 4.0 11.0 0.00 0.00 0.00 63 1018.8
20260506000036 59 265 3.0 15.0 0.00 0.00 0.00 63 1019.0
20260505234534 59 326 4.0 9.0 0.00 0.00 0.00 64 1019.2
20260505233035 58 330 3.0 10.0 0.00 0.00 0.00 64 1019.4
20260505231545 58 297 2.0 7.0 0.00 0.00 0.00 66 1019.6
20260505230028 58 289 2.0 6.0 0.00 0.00 0.00 66 1019.8
20260505224627 56 346 2.0 7.0 0.00 0.00 0.00 68 1019.8
20260505223023 56 322 1.0 6.0 0.00 0.00 0.00 69 1019.8
20260505221519 55 4 3.0 8.0 0.00 0.00 0.00 71 1019.8
20260505220019 54 319 1.0 7.0 0.00 0.00 0.00 73 1019.8
20260505214514 53 325 1.0 6.0 0.00 0.00 0.00 74 1019.7
20260505213016 53 310 1.0 6.0 0.00 0.00 0.00 74 1019.8
20260505211513 53 326 3.0 10.0 0.00 0.00 0.00 73 1019.8
20260505210013 53 332 3.0 7.0 0.00 0.00 0.00 74 1019.9
20260505204608 53 349 1.0 5.0 0.00 0.00 0.00 74 1020.0
20260505203012 53 309 1.0 7.0 0.00 0.00 0.00 73 1020.0
20260505201512 53 321 2.0 8.0 0.00 0.00 0.00 74 1020.0
20260505200007 52 298 1.0 4.0 0.00 0.00 0.00 75 1020.0
20260505194503 52 264 1.0 8.0 0.00 0.00 0.00 76 1020.0
20260505193001 52 322 2.0 8.0 0.00 0.00 0.00 75 1019.9
20260505191611 52 264 2.0 6.0 0.00 0.00 0.00 76 1019.9
20260505190059 52 301 3.0 7.0 0.00 0.00 0.00 76 1019.9
20260505184558 52 325 2.0 5.0 0.00 0.00 0.00 77 1019.9
20260505183056 52 307 2.0 5.0 0.00 0.00 0.00 79 1020.0
20260505181555 52 307 1.0 5.0 0.00 0.00 0.00 79 1020.0
20260505180059 52 333 2.0 6.0 0.00 0.00 0.00 79 1020.0
20260505174552 52 323 1.0 7.0 0.00 0.00 0.00 80 1020.1
20260505173056 51 315 3.0 6.0 0.00 0.00 0.00 80 1020.3
20260505171549 52 349 3.0 8.0 0.00 0.00 0.00 80 1020.3
20260505164544 51 312 4.0 8.0 0.00 0.00 0.00 80 1020.6
20260505163043 51 333 3.0 9.0 0.00 0.00 0.00 80 1020.6
20260505161538 51 347 3.0 7.0 0.00 0.00 0.00 80 1020.7
20260505153035 51 309 0.0 2.0 0.00 0.00 0.00 82 1021.0
20260505151536 51 333 0.0 2.0 0.00 0.00 0.00 81 1021.1
20260505124511 53 269 0.0 0.0 0.00 0.00 0.00 79 1022.0
20260505123009 54 255 0.0 0.0 0.00 0.00 0.00 79 1022.0
20260505121513 54 255 0.0 0.0 0.00 0.00 0.00 78 1022.0
20260505120007 55 306 0.0 0.0 0.00 0.00 0.00 77 1022.1
20260505114508 55 306 0.0 0.0 0.00 0.00 0.00 77 1022.1
20260505113015 55 302 0.0 0.0 0.00 0.00 0.00 77 1022.1
20260505111507 55 302 0.0 0.0 0.00 0.00 0.00 76 1022.2
20260505101505 56 258 2.0 3.0 0.00 0.00 0.00 74 1022.1
20260505100005 56 285 1.0 3.0 0.00 0.00 0.00 73 1022.1
20260505094502 56 293 1.0 3.0 0.00 0.00 0.00 73 1022.1
20260505093002 57 266 2.0 5.0 0.00 0.00 0.00 72 1022.2
20260505091500 57 267 0.0 4.0 0.00 0.00 0.00 72 1022.2